This demonstration page uses our WeatherBlox Daily Observations layout. Learn more.

Left ArrowRight Arrow

30.21309, -93.2044

Hourly Observations for May 1, 2022

Temp ( °F °C ) Dew Point ( °F °C ) Humidity (%) Winds ( mph kmh ) Pressure ( in mb ) Visibility ( mi km ) Precip ( " mm )
12:15 am 00:15 Clear 72 22 70 20.9 94 94 S 5 7 29.93 1014 10 16 0.00 0.00
12:35 am 00:35 Clear 71 21.8 69 20.8 94 94 S 6 9 29.93 1014 10 16 0.00 0.00
12:55 am 00:55 Clear 71 21.9 70 20.9 94 94 S 7 11 29.93 1014 10 16 0.00 0.00
1:15 am 01:15 Clear with Mist and Fog 71 21.9 70 21 95 95 SE 12 19 29.89 1012 7 11 0.00 0.00
1:35 am 01:35 Mostly Cloudy 73 22.7 71 21.6 94 94 SSW 6 9 29.92 1013 10 16 0.00 0.00
1:55 am 01:55 Cloudy 74 23.1 71 21.7 92 92 SSW 7 11 29.93 1014 10 16 0.00 0.00
2:15 am 02:15 Cloudy 74 23.4 71 21.8 91 91 WSW 3 6 29.93 1014 10 16 0.00 0.00
2:35 am 02:35 Partly Cloudy 74 23.4 71 21.6 90 90 SSW 6 9 29.92 1013 10 16 0.00 0.00
2:55 am 02:55 Partly Cloudy 73 22.7 70 21.3 92 92 S 5 7 29.93 1014 10 16 0.00 0.00
3:15 am 03:15 Partly Cloudy with Mist and Fog 72 22.1 70 21.1 94 94 SSE 3 6 29.94 1014 7 11 0.00 0.00
3:35 am 03:35 Partly Cloudy with Mist and Fog 71 21.9 70 21 95 95 SE 6 9 29.94 1014 5 8 0.00 0.00
3:55 am 03:55 Partly Cloudy with Mist and Fog 70 21.2 69 20.4 95 95 SSE 6 9 29.94 1014 4 6 0.00 0.00
4:15 am 04:15 Partly Cloudy with Nearby Thunderstorms 71 21.5 69 20.7 95 95 SSE 5 7 29.95 1014 4 6 0.00 0.00
4:35 am 04:35 Mostly Cloudy 72 22.2 70 21.3 95 95 SW 3 6 29.97 1015 10 16 0.00 0.00
4:55 am 04:55 Cloudy 73 22.8 71 21.6 93 93 SW 5 7 29.96 1015 7 11 0.00 0.00
5:15 am 05:15 Cloudy 73 22.8 71 21.7 94 94 SSW 3 6 29.97 1015 7 11 0.00 0.00
5:35 am 05:35 Mostly Cloudy with Mist and Fog 72 22.2 70 21.2 94 94 SE 6 9 29.97 1015 4 6 0.00 0.00
6:00 am 06:00 Mostly Cloudy 73 23 72 22 94 94 Calm 29.98 1015 10 16 0.00 0.00
6:46 am 06:46 Mostly Cloudy with Mist and Fog 72 22 72 22 100 100 Calm 29.99 1016 3 5 0.00 0.00
7:45 am 07:45 Partly Cloudy with Mist and Fog 73 23 72 22 94 94 SSE 7 11 30.00 1016 3 5 0.00 0.00
8:51 am 08:51 Mostly Cloudy 75 24 72 22 89 89 SW 6 9 30.02 1017 10 16 0.00 0.00
9:46 am 09:46 Mostly Cloudy 79 26 72 22 79 79 SSW 6 9 30.02 1017 10 16 0.00 0.00
10:50 am 10:50 Mostly Cloudy 81 27 70 21 70 70 SW 7 11 30.02 1017 10 16 0.00 0.00
11:50 am 11:50 Mostly Cloudy 82 28 70 21 66 66 SW 6 9 30.02 1017 10 16 0.00 0.00
12:54 pm 12:54 Mostly Cloudy 84 29 70 21 62 62 SW 6 9 30.00 1016 10 16 0.00 0.00
1:47 pm 13:47 Mostly Cloudy with Thunderstorms 88 31 70 21 55 55 S 12 19 30.00 1016 10 16 0.00 0.00
2:45 pm 14:45 Mostly Cloudy 88 31 70 21 55 55 SSW 12 19 29.98 1015 10 16 0.00 0.00
3:45 pm 15:45 Mostly Cloudy 84 29 72 22 66 66 SSW 20 31 29.96 1015 10 16 0.00 0.00
4:45 pm 16:45 Mostly Cloudy 81 27 68 20 66 66 ESE 23 37 29.96 1015 10 16 0.00 0.00
5:45 pm 17:45 Mostly Cloudy 75 24 68 20 78 78 SE 17 28 29.98 1015 10 16 0.00 0.00
6:55 pm 18:55 Mostly Cloudy 75 24 70 21 83 83 Calm 29.97 1015 10 16 0.00 0.00
7:53 pm 19:53 Mostly Clear 73 23 70 21 89 89 Calm 29.97 1015 10 16 0.00 0.00
8:55 pm 20:55 Mostly Clear 72 22 70 21 94 94 Calm 29.99 1016 10 16 0.00 0.00
9:48 pm 21:48 Mostly Cloudy 72 22 70 21 94 94 Calm 29.99 1016 10 16 0.00 0.00
10:15 pm 22:15 Mostly Cloudy 72 22 69 20.4 91 91 ESE 8 13 29.99 1016 10 16 0.00 0.00
10:35 pm 22:35 Partly Cloudy 71 21.7 68 20.2 91 91 ESE 8 13 29.99 1016 10 16 0.00 0.00
10:55 pm 22:55 Partly Cloudy 71 21.7 69 20.3 92 92 SE 9 15 29.98 1015 10 16 0.00 0.00
11:15 pm 23:15 Clear 71 21.7 69 20.3 92 92 SE 8 13 29.98 1015 10 16 0.00 0.00
11:35 pm 23:35 Clear 71 21.7 68 20.2 91 91 SSE 12 19 29.97 1015 10 16 0.00 0.00
11:55 pm 23:55 Clear 71 21.4 68 19.8 91 91 SSE 10 17 29.97 1015 10 16 0.00 0.00

Powered by AerisWeather